Weather History for Starkville, MS

Change the Weather History Date:

Tuesday, February 12, 2013

  Actual Average Record
Temperature  
Mean Temperature 44 °F -  
Max Temperature 46 °F 55 °F 46 °F (2013)
Min Temperature 41 °F 32 °F 19 °F (2012)
Degree Days  
Heating Degree Days 22    
Moisture  
Dew Point 41 °F    
Average Humidity 91    
Maximum Humidity 100    
Minimum Humidity 71    
Precipitation  
Precipitation 1.27 in - - ()
Sea Level Pressure  
Sea Level Pressure 29.97 in    
Wind  
Wind Speed 4 mph (ENE)    
Max Wind Speed 13 mph    
Max Gust Speed 17 mph    
Visibility 8 miles    
Events Rain , Thunderstorm    
Averages and records for this station are not official NWS values.
T = Trace of Precipitation, MM = Missing Value Source: NWS Daily Summary

Daily Weather History Graph

Daily Weather History Graph

Search for Another Location

Airport:

Trip Planner

Search our weather history database for the weather conditions in past years. The results will help you decide how hot, cold, wet, or windy it might be!

Date:

Astronomy

Feb. 12, 2013 Rise Set
Actual Time 6:42 AM CST 5:37 PM CST
Civil Twilight 6:16 AM CST 6:03 PM CST
Nautical Twilight 5:47 AM CST 6:32 PM CST
Astronomical Twilight 5:18 AM CST 7:01 PM CST
Moon 7:49 AM CST (2/12) 8:25 PM CST (2/12)
Length of Visible Light 11h 46m
Length of Day
10h 55m
Waxing Crescent, 7% of the Moon is Illuminated
Feb 12
Waxing Crescent
Feb 17
First Quarter
Feb 25
Full
Mar 4
Last Quarter
Mar 11
New

Hourly Weather History & Observations

Time (CST) Temp. Windchill Dew Point Humidity Pressure Visibility Wind Dir Wind Speed Gust Speed Precip Events Conditions
12:15 AM 44.6 °F 43.1 °F 44.6 °F 100% 30.13 in 10.0 mi North 3.5 mph - N/A   Mostly Cloudy
12:35 AM 44.6 °F - 44.6 °F 100% 30.13 in 10.0 mi Calm Calm - N/A   Mostly Cloudy
12:55 AM 44.6 °F - 42.8 °F 93% 30.13 in 10.0 mi Calm Calm - N/A   Overcast
1:15 AM 44.6 °F 43.1 °F 44.6 °F 100% 30.14 in 10.0 mi NNW 3.5 mph - N/A   Overcast
1:35 AM 44.6 °F - 42.8 °F 93% 30.14 in 10.0 mi Calm Calm - N/A Rain Light Rain
1:55 AM 44.6 °F - 42.8 °F 93% 30.15 in 10.0 mi Calm Calm - N/A   Scattered Clouds
2:15 AM 44.6 °F - 44.6 °F 100% 30.14 in 10.0 mi Calm Calm - N/A   Mostly Cloudy
2:35 AM 44.6 °F 42.2 °F 42.8 °F 93% 30.11 in 10.0 mi North 4.6 mph - N/A   Overcast
2:55 AM 44.6 °F 42.2 °F 42.8 °F 93% 30.16 in 10.0 mi West 4.6 mph - N/A   Overcast
3:15 AM 44.6 °F - 42.8 °F 93% 30.14 in 10.0 mi Calm Calm - N/A Rain Light Rain
3:35 AM 44.6 °F - 42.8 °F 93% 30.13 in 10.0 mi Calm Calm - N/A   Overcast
3:55 AM 44.6 °F - 42.8 °F 93% 30.12 in 10.0 mi Calm Calm - N/A Rain Light Rain
4:15 AM 44.6 °F - 42.8 °F 93% 30.11 in 10.0 mi Calm Calm - N/A   Overcast
4:35 AM 44.6 °F 43.1 °F 41.0 °F 87% 30.11 in 10.0 mi North 3.5 mph - N/A   Mostly Cloudy
4:55 AM 42.8 °F - 41.0 °F 93% 30.10 in 10.0 mi Calm Calm - N/A   Scattered Clouds
5:15 AM 41.0 °F - 41.0 °F 100% 30.10 in 10.0 mi Calm Calm - N/A   Mostly Cloudy
5:35 AM 44.6 °F 41.4 °F 41.0 °F 87% 30.08 in 10.0 mi ENE 5.8 mph - N/A   Overcast
6:15 AM 44.6 °F 40.7 °F 41.0 °F 87% 30.07 in 10.0 mi East 6.9 mph - N/A   Scattered Clouds
6:35 AM 42.8 °F 40.1 °F 41.0 °F 93% 30.07 in 10.0 mi ENE 4.6 mph - N/A   Scattered Clouds
6:55 AM 44.6 °F 40.7 °F 41.0 °F 87% 30.07 in 10.0 mi NE 6.9 mph - N/A   Clear
7:15 AM 44.6 °F 40.2 °F 41.0 °F 87% 30.06 in 10.0 mi NE 8.1 mph - N/A   Clear
7:35 AM 44.6 °F 39.2 °F 41.0 °F 87% 30.04 in 10.0 mi ENE 10.4 mph - N/A   Clear
7:55 AM 44.6 °F 38.8 °F 39.2 °F 81% 30.03 in 10.0 mi ENE 11.5 mph - N/A   Clear
8:15 AM 46.4 °F 41.5 °F 37.4 °F 71% 30.05 in 10.0 mi East 10.4 mph - N/A   Clear
8:35 AM 46.4 °F 42.4 °F 37.4 °F 71% 30.07 in 10.0 mi NE 8.1 mph - N/A   Scattered Clouds
8:55 AM 46.4 °F 42.4 °F 37.4 °F 71% 30.06 in 10.0 mi East 8.1 mph - N/A   Scattered Clouds
9:15 AM 46.4 °F 42.9 °F 37.4 °F 71% 30.05 in 10.0 mi East 6.9 mph - N/A Thunderstorm Mostly Cloudy
9:35 AM 46.4 °F 43.5 °F 37.4 °F 71% 30.04 in 10.0 mi East 5.8 mph - N/A   Overcast
9:55 AM 46.4 °F 42.4 °F 37.4 °F 71% 30.06 in 10.0 mi East 8.1 mph - N/A   Overcast
10:15 AM 46.4 °F 44.3 °F 39.2 °F 76% 30.06 in 10.0 mi ESE 4.6 mph - 0.01 in Rain Light Rain
10:35 AM 44.6 °F 40.7 °F 41.0 °F 87% 30.04 in 10.0 mi East 6.9 mph - 0.01 in   Light Drizzle
10:55 AM 44.6 °F 40.2 °F 41.0 °F 87% 30.03 in 10.0 mi East 8.1 mph - 0.01 in   Drizzle
11:15 AM 44.6 °F 40.2 °F 41.0 °F 87% 30.01 in 10.0 mi East 8.1 mph - N/A Rain Light Rain
11:35 AM 46.4 °F 41.9 °F 41.0 °F 81% 29.97 in 10.0 mi East 9.2 mph - 0.01 in   Light Drizzle
11:55 AM 44.6 °F 42.2 °F 41.0 °F 87% 30.05 in 10.0 mi SSE 4.6 mph - 0.01 in Thunderstorm Thunderstorm
12:15 PM 44.6 °F 42.2 °F 41.0 °F 87% 30.05 in 10.0 mi ESE 4.6 mph - 0.09 in Rain Light Rain
12:35 PM 44.6 °F 39.7 °F 41.0 °F 87% 30.01 in 7.0 mi ENE 9.2 mph - 0.10 in Rain Rain
12:55 PM 44.6 °F 41.4 °F 41.0 °F 87% 29.97 in 4.0 mi North 5.8 mph 11.5 mph 0.20 in Rain Heavy Rain
1:15 PM 42.8 °F 40.1 °F 41.0 °F 93% 30.00 in 4.0 mi East 4.6 mph - 0.07 in Rain , Thunderstorm Heavy Thunderstorms and Rain
1:35 PM 42.8 °F 37.0 °F 41.0 °F 93% 29.93 in 5.0 mi ENE 10.4 mph - 0.13 in Rain Rain
1:55 PM 42.8 °F 38.6 °F 41.0 °F 93% 29.93 in 5.0 mi ENE 6.9 mph - 0.18 in Rain , Thunderstorm Rain
2:15 PM 42.8 °F 37.5 °F 41.0 °F 93% 29.90 in 4.0 mi NE 9.2 mph - 0.08 in Rain , Thunderstorm Heavy Thunderstorms and Rain
2:35 PM 42.8 °F 36.2 °F 41.0 °F 93% 29.89 in 4.0 mi NE 12.7 mph 17.3 mph 0.19 in Rain , Thunderstorm Heavy Thunderstorms and Rain
2:55 PM 42.8 °F 37.5 °F 41.0 °F 93% 29.90 in 3.0 mi East 9.2 mph - 0.31 in Rain , Thunderstorm Heavy Thunderstorms and Rain
3:15 PM 42.8 °F 37.0 °F 41.0 °F 93% 29.88 in 7.0 mi ENE 10.4 mph - 0.06 in Rain Rain
3:35 PM 42.8 °F 39.3 °F 41.0 °F 93% 29.88 in 5.0 mi ENE 5.8 mph - 0.10 in Rain , Thunderstorm Rain
3:55 PM 42.8 °F 37.5 °F 41.0 °F 93% 29.88 in 10.0 mi NE 9.2 mph - 0.11 in Rain , Thunderstorm Light Thunderstorms and Rain
4:15 PM 42.8 °F 38.6 °F 41.0 °F 93% 29.87 in 5.0 mi NE 6.9 mph - 0.03 in Rain , Thunderstorm Thunderstorms and Rain
4:35 PM 42.8 °F 37.5 °F 41.0 °F 93% 29.85 in 4.0 mi NE 9.2 mph - 0.14 in Rain , Thunderstorm Rain
4:55 PM 42.8 °F 37.5 °F 41.0 °F 93% 29.85 in 10.0 mi ENE 9.2 mph - 0.15 in Rain Rain
5:15 PM 42.8 °F 38.0 °F 41.0 °F 93% 29.83 in 10.0 mi NE 8.1 mph - N/A Rain Light Rain
5:35 PM 42.8 °F 38.0 °F 41.0 °F 93% 29.92 in 7.0 mi West 8.1 mph - 0.04 in Rain , Thunderstorm Heavy Thunderstorms and Rain
5:55 PM 42.8 °F 37.0 °F 41.0 °F 93% 29.84 in 7.0 mi East 10.4 mph - 0.19 in Rain Light Rain
6:15 PM 42.8 °F 38.0 °F 41.0 °F 93% 29.84 in 10.0 mi ENE 8.1 mph - 0.02 in Rain Light Rain
6:35 PM 42.8 °F 38.0 °F 42.8 °F 100% 29.84 in 7.0 mi NE 8.1 mph - 0.06 in Rain , Thunderstorm Heavy Thunderstorms and Rain
6:55 PM 42.8 °F 37.5 °F 41.0 °F 93% 29.84 in 7.0 mi ENE 9.2 mph - 0.10 in Rain Light Rain
7:15 PM 42.8 °F 38.0 °F 41.0 °F 93% 29.84 in 10.0 mi ENE 8.1 mph - N/A   Light Drizzle
7:35 PM 42.8 °F 38.0 °F 41.0 °F 93% 29.84 in 5.0 mi ENE 8.1 mph - N/A   Overcast
8:15 PM 42.8 °F 38.0 °F 41.0 °F 93% 29.81 in 10.0 mi ENE 8.1 mph - N/A   Overcast
8:35 PM 42.8 °F 38.6 °F 41.0 °F 93% 29.81 in 10.0 mi East 6.9 mph - N/A   Overcast
8:55 PM 42.8 °F 40.1 °F 41.0 °F 93% 29.81 in 5.0 mi East 4.6 mph - N/A   Drizzle
9:15 PM 42.8 °F - 42.8 °F 100% 29.81 in 4.0 mi Calm Calm - N/A   Drizzle
9:35 PM 42.8 °F 40.1 °F 42.8 °F 100% 29.80 in 4.0 mi East 4.6 mph - N/A   Drizzle
9:55 PM 42.8 °F - 41.0 °F 93% 29.80 in 3.0 mi Calm Calm - N/A Rain Light Rain
10:15 PM 42.8 °F - 41.0 °F 93% 29.80 in 4.0 mi Calm Calm - N/A Rain Light Rain
10:35 PM 42.8 °F - 42.8 °F 100% 29.79 in 4.0 mi Calm Calm - 0.01 in   Overcast
10:55 PM 42.8 °F - 42.8 °F 100% 29.79 in 3.0 mi Calm Calm - 0.01 in Rain Light Rain
11:15 PM 42.8 °F - 42.8 °F 100% 29.79 in 2.5 mi Calm Calm - N/A Rain Rain
11:35 PM 42.8 °F - 42.8 °F 100% 29.80 in 3.0 mi Calm Calm - N/A Rain Light Rain
11:55 PM 42.8 °F - 42.8 °F 100% 29.79 in 2.5 mi Calm Calm - N/A   Overcast